Location: Marignac
(43.2152°N, 0.9668°E)
Time: 09:16:39
(UTC+00:00)

Daily predictions for brighter satellites

Satellite Brightness Start Highest point End
(mag) Time Altitude Azimuth Time Altitude Azimuth Time Altitude Azimuth
Meteor 1-18 Rocket 4.4 19:52:19 10° SSW 19:57:54 82° W 20:03:37 10° N
CZ-2C R/B 4.4 19:52:41 10° S 19:57:57 46° W 20:03:29 10° NNW
Cosmos 1420 Rocket 4.0 19:53:41 10° S 19:58:48 64° ESE 20:03:57 10° NNE
Cosmos 1452 Rocket 3.9 19:54:10 10° S 19:59:09 44° ESE 20:04:09 10° NNE
STARLINK-1091 4.1 19:55:10 10° NW 19:59:15 54° NNE 20:03:18 10° ESE
Cosmos 2082 Rocket 2.8 19:54:30 10° NNW 19:59:59 44° ENE 20:05:24 10° SE
STARLINK-1224 3.8 19:56:56 10° WSW 20:01:04 77° NW 20:05:13 10° NE
DMSP B5D2-2 4.1 19:56:50 10° NNE 20:02:09 74° ESE 20:07:24 10° S
STARLINK-1072 4.0 20:00:09 10° NW 20:04:15 59° NNE 20:08:20 10° ESE
Cosmos 1461 3.6 20:01:56 10° S 20:05:36 33° ESE 20:09:28 10° NE
STARLINK-1225 4.0 20:01:56 10° WSW 20:06:04 71° NNW 20:10:13 10° NE
Cosmos 1140 Rocket 4.0 20:01:17 10° NNW 20:06:26 62° WSW 20:11:35 10° S
Cosmos 1782 Rocket 3.9 20:02:06 10° NNW 20:06:35 74° W 20:11:02 10° S
SJ-6B 3.6 20:03:54 10° S 20:07:30 48° W 20:11:08 10° NNW
Iridium 51 4.1 20:03:40 10° S 20:07:30 71° E 20:11:07 10° N
MOS 1 Rocket 3.3 20:03:24 10° N 20:07:47 76° WNW 20:12:02 10° SSW
Cosmos 1544 3.2 20:04:36 10° N 20:08:14 78° W 20:11:49 10° S
Okean 3 3.7 20:04:04 10° S 20:08:15 55° E 20:12:28 10° NNE
STARLINK-1096 3.9 20:05:08 10° NW 20:09:15 63° NNE 20:13:21 10° ESE
ASTEX 1 4.1 20:05:18 10° S 20:10:06 58° W 20:14:59 10° NNW
STARLINK-1230 4.1 20:06:55 10° WSW 20:11:03 66° NNW 20:15:10 10° NE
STARLINK-1079 3.8 20:10:06 10° NW 20:14:14 68° NNE 20:18:21 10° ESE
STARLINK-1243 4.2 20:11:57 10° WSW 20:16:03 61° NNW 20:20:09 10° NE
Cosmos 2221 Rocket 3.7 20:11:40 10° S 20:16:06 63° E 20:20:37 10° NNE
Meteor 2-9 Rocket 4.3 20:11:39 10° NNW 20:17:00 74° W 20:22:17 10° S
SL-4 R/B 1.1 20:14:41 10° NNW 20:17:45 81° WSW 20:20:30 10° SSE
STARLINK-1116 3.7 20:15:04 10° NW 20:19:13 74° NNE 20:23:13 11° ESE
NOSS 8 (F) 4.2 20:15:52 10° SSW 20:19:14 58° ESE 20:22:13 10° NE
Meteor 1-13 Rocket 4.4 20:14:17 10° S 20:19:42 53° E 20:25:16 10° NNE
STARLINK-1236 4.4 20:16:57 10° WSW 20:21:01 57° NNW 20:25:06 10° NE
STARLINK-1094 3.6 20:25:02 10° NW 20:29:11 86° NE 20:32:47 13° SE
USA 245 3.9 20:27:55 13° SE 20:29:53 24° ENE 20:32:06 10° NNE
Sich 1 Rocket 4.1 20:25:42 10° NNW 20:30:16 63° W 20:34:46 10° S
Cosmos 2278 Rocket 3.0 20:26:19 10° SW 20:31:53 55° WNW 20:37:28 10° NNE
Resurs 01 Rocket 1.7 20:28:51 10° SSE 20:33:19 85° W 20:37:47 10° NNW
GPS 2-04 Rocket1 3.7 20:31:08 10° SW 20:34:00 24° S 20:35:57 16° SE
STARLINK-1117 3.6 20:30:01 10° NW 20:34:10 87° SW 20:37:34 15° SE
Okean 1 Rocket 4.2 20:31:04 10° NNE 20:34:55 28° ENE 20:37:54 14° SE
Cosmos 1741 Rocket 4.2 20:30:13 10° NNW 20:35:23 59° ENE 20:39:49 14° SE
Okean 2 Rocket 3.1 20:31:20 10° N 20:35:47 90° W 20:40:10 10° S
MetOp-B 4.2 20:32:02 11° SSE 20:37:12 66° ENE 20:42:31 10° N
Meteor 1-12 Rocket 4.3 20:33:26 10° N 20:39:07 90° E 20:44:51 10° S
STARLINK-1078 3.6 20:35:00 10° NW 20:39:08 81° SW 20:42:21 16° SE
SL-8 R/B 4.4 20:36:17 10° WNW 20:40:59 53° NNE 20:45:43 10° E
SPOT 3 Rocket 4.5 20:38:52 10° S 20:43:47 46° W 20:48:45 10° NNW
Cosmos 371 Rocket 3.6 20:39:04 10° SSW 20:43:53 70° WNW 20:48:46 10° NNE
Cosmos 2279 Rocket 4.0 20:37:36 10° N 20:43:53 83° E 20:50:06 10° S
STARLINK-1108 3.6 20:39:58 10° WNW 20:44:07 74° SW 20:47:08 18° SE
Cosmos 1850 Rocket 4.1 20:39:37 10° NNW 20:45:00 75° ENE 20:49:25 15° SSE
ATLAS 3B CENTAUR R/B 4.2 20:31:50 10° WSW 20:45:11 32° S 20:50:57 15° SE
SL-4 R/B 3.6 20:41:52 10° S 20:45:20 21° SE 20:48:53 10° E
Cosmos 1110 Rocket 4.3 20:41:11 10° S 20:46:04 44° ESE 20:50:59 10° NNE
Terra 3.4 20:44:22 12° ESE 20:47:23 21° ENE 20:50:55 10° NNE
Spot 2 Rocket 3.6 20:44:03 14° SSE 20:48:20 66° ENE 20:53:21 10° N
STARLINK-1071 3.7 20:44:58 10° WNW 20:49:05 68° SW 20:51:55 19° SE
SPOT 1/Viking Rocket 3.9 20:45:17 16° SE 20:49:16 49° ENE 20:54:13 10° N
Abrixas rocket 2.6 20:46:45 10° WNW 20:49:38 49° NNE 20:51:50 15° E
NOSS 8 (H) 4.0 20:47:06 10° SSW 20:50:23 75° SE 20:53:25 10° NE
Cosmos 2151 Rocket 3.6 20:45:58 10° N 20:50:32 90° E 20:54:34 13° S
STARLINK-1110 3.8 20:48:45 10° WNW 20:52:51 63° SW 20:55:32 20° SE
STARLINK-1124 3.9 20:54:57 10° WNW 20:59:01 56° SW 21:01:29 22° SSE
Cosmos 1331 Rocket 4.0 20:57:48 10° S 21:02:49 56° ESE 21:07:54 10° NNE
Aureole 2 Rocket 2.1 21:00:35 10° SSW 21:03:44 78° WNW 21:06:44 10° NNE
STARLINK-1122 4.0 20:59:57 10° WNW 21:03:59 51° SW 21:06:15 23° SSE
deb Kosmos-1763 4.1 21:01:35 10° NNW 21:05:10 64° ENE 21:06:57 27° SE
Cosmos 1300 Rocket 4.4 21:01:00 10° NNW 21:05:18 49° W 21:09:33 10° SSW
STARLINK-1113 4.4 21:02:13 10° NW 21:06:14 46° NNE 21:09:16 16° E
Cosmos 1437 Rocket 3.1 21:04:56 10° SSW 21:08:40 61° W 21:12:28 10° N
STARLINK-1126 4.2 21:04:59 10° WNW 21:08:59 47° SW 21:11:06 24° SSE
Cosmos 1378 3.5 21:09:41 27° SSE 21:11:15 43° E 21:14:47 10° NNE
STARLINK-1119 4.3 21:07:12 10° NW 21:11:15 50° NNE 21:14:03 18° E
STARLINK-1082 4.3 21:09:57 10° WNW 21:13:53 43° SW 21:15:48 25° SSE
Cosmos 304 Rocket 4.0 21:10:31 10° SSW 21:15:17 74° WNW 21:20:06 10° NNE
ISS -2.4 21:13:05 10° WNW 21:16:01 28° SW 21:17:02 23° SSW
STARLINK-1114 4.2 21:12:09 10° NW 21:16:13 53° NNE 21:18:49 21° E
Meteor 1-15 Rocket 4.3 21:11:42 10° N 21:17:40 89° W 21:21:57 20° S
STARLINK-1100 4.4 21:14:57 10° WNW 21:18:49 39° SW 21:20:34 26° S
Lacrosse 5 3.0 21:14:42 10° WNW 21:19:14 34° SW 21:22:07 19° S
Cosmos 1092 Rocket 4.2 21:15:30 21° SSE 21:19:24 50° E 21:25:18 10° NNE
NOSS 2-2 (D) 3.0 21:16:36 10° SW 21:20:09 89° WNW 21:24:02 10° NE
STARLINK-1130 (DARKSAT) 4.0 21:17:07 10° NW 21:21:13 57° NNE 21:23:36 23° ESE
CENTAUR R/B 4.0 21:16:21 10° NNW 21:23:48 42° NE 21:31:08 13° ESE
Cosmos 1674 Rocket 4.2 21:19:32 10° SSW 21:23:48 55° W 21:28:09 10° N
STARLINK-1084 3.9 21:22:06 10° NW 21:26:13 61° NNE 21:28:23 26° ESE
Cosmos 1378 Rocket 3.8 21:22:50 13° SSW 21:26:40 69° W 21:31:03 10° N
SL-27 R/B 4.0 21:25:34 10° N 21:28:33 24° ENE 21:29:28 22° E
STARLINK-1098 3.8 21:27:04 10° NW 21:31:12 66° NNE 21:33:10 29° ESE
Cosmos 1766 3.5 21:27:30 10° N 21:31:27 58° E 21:32:47 37° SE
IGS 5A 4.2 21:31:56 20° SSW 21:34:29 46° W 21:38:31 10° NNW
Cosmos 1943 Rocket 2.1 21:31:46 17° S 21:36:03 66° ESE 21:41:37 10° NNE
STARLINK-1123 3.7 21:32:01 10° NW 21:36:10 72° NNE 21:37:56 33° ESE
Cosmos 2297 4.3 21:30:40 10° SW 21:36:16 58° WNW 21:41:55 10° NNE
NOSS 2-2 (E) 4.2 21:34:04 10° WSW 21:37:30 46° NW 21:41:24 10° NNE
NOSS 3-4 (A) 4.2 21:36:31 26° SE 21:37:33 28° ESE 21:42:40 10° NE
NOSS 3-4 (C) 4.2 21:36:40 26° SE 21:37:40 28° ESE 21:42:46 10° NE
Cosmos 1900 4.4 21:33:38 10° NNW 21:38:41 72° ENE 21:41:01 32° SE
STARLINK-1097 3.6 21:37:01 10° NW 21:41:11 78° NE 21:42:45 37° ESE
Cosmos 2082 Rocket 3.7 21:39:01 10° NW 21:43:50 29° WSW 21:47:54 13° SSW
SeaSat 1 3.9 21:41:12 10° ENE 21:44:35 21° E 21:44:35 21° E
STARLINK-1099 3.6 21:42:00 10° NW 21:46:09 84° NE 21:47:31 41° ESE
Cosmos 1975 Rocket 3.1 21:44:36 37° SSE 21:46:11 65° E 21:50:34 10° NNE
Cosmos 292 Rocket 4.1 21:48:20 37° SE 21:49:33 45° ESE 21:54:11 10° NNE
BREEZE-M DEB (TANK) 4.2 21:30:25 10° WSW 21:49:44 78° NNW 21:54:11 10° ENE
STARLINK-1104 3.5 21:46:58 10° NW 21:51:08 90° S 21:52:17 46° SE
Cosmos 2369 Rocket 2.2 21:49:04 26° S 21:52:14 64° ESE 21:57:51 10° NNE
STARLINK-1144 3.5 21:51:57 10° NW 21:56:07 83° SW 21:57:06 51° SE
SPOT 5 3.3 21:53:31 30° S 21:56:09 67° W 22:01:29 10° NNW
ATLAS CENTAUR R/B 3.1 21:59:35 20° E 21:59:35 20° E 22:01:32 10° ENE
STARLINK-1103 3.5 21:56:55 10° WNW 22:01:05 77° SW 22:01:51 56° SSE
ERS-1 Rocket 3.6 21:59:40 26° SSW 22:02:11 49° W 22:07:05 10° NNW
Cosmos 1025 Rocket 3.9 22:02:58 32° E 22:03:10 32° E 22:06:58 10° NNE
Okean 2 3.5 22:02:00 37° SSW 22:03:33 70° W 22:07:43 10° N
Cosmos 2026 Rocket 3.9 22:00:23 29° S 22:03:47 81° E 22:10:10 10° N
ATLAS 2AS CENTAUR R/B 3.2 22:00:30 24° S 22:05:21 54° ESE 22:13:04 10° NE
Cosmos 1656 Rocket 4.1 22:04:50 37° SE 22:05:58 41° ESE 22:11:10 10° NE
STARLINK-1101 3.5 22:01:54 10° WNW 22:06:03 70° SW 22:06:38 59° SSE
Thor Agena Rocket 4.1 22:01:14 10° NNE 22:06:12 40° E 22:07:12 36° SE
BREEZE M DEB (TANK) 4.0 22:02:38 10° W 22:06:27 33° NNW 22:08:33 10° NE
Meteor 1-22 Rocket 4.3 22:00:39 10° NNW 22:06:31 75° W 22:09:05 34° S
Cosmos 1553 Rocket 4.3 22:03:12 10° N 22:09:21 54° ENE 22:11:43 35° SE
APEX 4.3 22:06:47 28° S 22:10:21 69° ESE 22:15:52 10° NNE
Cosmos 1953 3.9 22:07:15 10° NNE 22:10:23 22° ENE 22:10:41 21° E
NOSS 3-2 (A) 4.1 22:03:07 10° NW 22:10:46 84° SW 22:15:10 32° SSE
STARLINK-1102 3.6 22:06:55 10° WNW 22:11:01 64° SW 22:11:26 60° S
Cosmos 1805 4.3 22:07:33 10° NNW 22:11:12 38° W 22:12:24 30° SW
Cosmos 1470 3.1 22:07:51 10° N 22:11:37 49° ENE 22:11:51 48° E
STARLINK-1111 3.7 22:11:54 10° WNW 22:15:58 58° SW 22:16:12 57° SSW
Cosmos 968 Rocket 3.7 22:10:56 10° NNW 22:16:01 59° ENE 22:17:31 42° ESE
Cosmos 1655 Rocket 4.5 22:15:02 35° SE 22:16:57 45° E 22:22:51 10° NNE
Cosmos 1455 Rocket 3.0 22:14:13 10° N 22:18:34 81° W 22:19:25 56° S
ATLAS 5 CENTAUR R/B 2.6 22:13:42 10° SSW 22:21:46 36° ENE 22:23:23 10° NE
STARLINK-1073 3.8 22:16:54 10° WNW 22:20:57 53° SW 22:20:59 53° SW
USA 238 DEB 3.9 22:15:22 10° NW 22:22:35 73° WSW 22:25:51 37° SSE
USA 238 3.9 22:15:28 10° NW 22:22:42 74° WSW 22:25:58 37° SSE
SL-8 R/B 3.7 22:18:54 10° WNW 22:23:38 60° SSW 22:24:13 55° S
SL-4 R/B 2.3 22:19:49 10° WSW 22:24:35 87° NW 22:29:29 10° ENE
Terra 2.5 22:23:15 34° SSW 22:24:48 46° W 22:29:24 10° NNW
Abrixas rocket 4.4 22:22:27 10° W 22:23:18 16° W 22:23:18 16° W
Cosmos 1842 3.9 22:24:08 39° SW 22:25:07 49° WNW 22:28:55 10° N
Cosmos 1758 3.4 22:21:06 10° N 22:25:09 63° E 22:25:25 61° ESE
STARLINK-1121 4.0 22:21:54 10° WNW 22:25:46 48° SW 22:25:46 48° SW
Meteor 2-13 Rocket 4.5 22:23:31 31° SSW 22:26:37 77° W 22:32:49 10° N
STARLINK-1234 4.3 22:26:52 10° NW 22:29:54 34° NNE 22:30:16 33° NE
STARLINK-1106 4.2 22:26:55 10° WNW 22:30:34 43° WSW 22:30:34 43° WSW
Cosmos 2266 Rocket 4.4 22:33:43 38° SE 22:35:13 45° E 22:40:55 10° NNE
STARLINK-1112 4.4 22:31:54 10° WNW 22:35:19 38° WSW 22:35:19 38° WSW
STARLINK-1209 4.1 22:32:59 10° NW 22:36:08 40° NNE 22:36:13 40° NNE
Cosmos 1503 Rocket 4.2 22:30:55 10° NNW 22:36:13 65° ENE 22:37:35 47° SE
Cosmos 2263 4.3 22:39:18 30° SW 22:42:08 72° WNW 22:47:46 10° NNE
Meteor 2-8 Rocket 4.5 22:36:03 10° N 22:42:13 72° E 22:44:07 46° SSE
Cosmos 1536 Rocket 3.3 22:45:44 77° SSE 22:46:00 84° E 22:50:22 10° N
Cosmos 1674 4.4 22:48:20 23° ENE 22:48:20 23° ENE 22:50:40 10° NNE
Cosmos 1271 Rocket 3.0 22:49:29 56° W 22:49:41 57° WNW 22:53:35 10° N
Cosmos 1242 Rocket 3.7 22:49:25 35° W 22:49:51 36° WNW 22:53:18 10° N
Spot 4 3.7 22:53:29 65° SSE 22:54:14 86° ENE 22:59:07 10° NNW
COSMOS 2455 2.8 22:52:50 50° S 22:54:17 68° ESE 23:00:17 10° NE
Cosmos 1544 Rocket 4.2 22:51:09 10° NNW 22:55:17 44° W 22:55:47 42° WSW
Cosmos 1354 Rocket 3.9 22:50:13 10° NNW 22:55:33 84° ENE 22:56:35 59° SSE
USA 215 4.0 22:52:57 11° ESE 22:59:00 51° NNE 23:05:17 10° NW
Cosmos 1707 3.1 22:59:44 57° W 22:59:45 57° W 23:03:36 10° N
Cosmos 1833 4.1 22:54:21 10° NNW 22:59:59 78° WSW 23:01:10 57° S
Helios 1A 4.4 23:01:35 26° E 23:02:03 27° ENE 23:05:37 10° N
Cosmos 1174 4.5 23:06:36 41° NNE 23:06:36 41° NNE 23:09:09 10° NNE
ATLAS 3B CENTAUR R/B 4.5 23:01:07 10° WSW 23:05:10 17° SW 23:05:10 17° SW
Cosmos 1726 2.5 23:04:08 10° N 23:07:20 64° N 23:07:20 64° N
ALOS 2 2.8 23:07:47 57° E 23:08:01 58° ENE 23:12:21 10° N
COSMOS 2487 3.3 23:07:54 10° NNW 23:10:32 48° N 23:10:32 48° N
Meteor 2-5 Rocket 4.3 23:14:12 40° ESE 23:14:54 41° E 23:20:08 10° NNE
CENTAUR R/B 3.3 23:06:57 10° NW 23:15:03 64° WSW 23:18:17 41° S
Meteor 1-16 Rocket 4.0 23:11:24 10° N 23:16:55 90° W 23:17:49 64° S
Cosmos 1867 3.4 23:12:36 10° NW 23:18:03 73° WSW 23:18:45 64° S
ATLAS 3B R/B 2.8 23:11:27 10° NNW 23:18:17 76° NE 23:21:10 39° SE
EO 1 Del DPAF 4.4 23:15:46 10° N 23:19:13 35° WNW 23:19:29 34° W
Cosmos 1943 Rocket 4.4 23:16:08 10° W 23:20:20 21° NW 23:24:34 10° N
NOSS 3-2 (C) 4.4 23:12:56 10° NW 23:20:24 52° WSW 23:23:02 40° SSW
Cosmos 1606 Rocket 3.9 23:17:22 10° N 23:21:36 54° ENE 23:21:36 54° ENE
Cosmos 2098 Rocket 4.3 23:20:08 47° SSE 23:22:24 74° E 23:29:52 10° NNE
SeaSat 1 2.9 23:17:50 10° NNE 23:22:40 56° WNW 23:24:21 37° WSW
NOSS 3-4 (A) 4.0 23:23:53 20° WSW 23:28:00 54° NW 23:34:14 10° NNE
NOSS 3-4 (C) 4.0 23:24:01 20° WSW 23:28:06 55° NW 23:34:21 10° NNE
ATLAS CENTAUR R/B 4.2 23:27:09 10° NNE 23:28:07 11° NE 23:29:16 10° ENE
RESURS DK-1 2.8 23:29:48 53° ENE 23:29:48 53° ENE 23:33:10 10° NNE
Cosmos 2084 3.8 23:33:36 59° ENE 23:33:36 59° ENE 23:37:26 10° NE
BREEZE-M R/B 3.8 23:25:18 10° SW 23:34:29 64° SSE 23:38:46 10° ENE
Cosmos 1626 3.6 23:36:00 29° ENE 23:36:00 29° ENE 23:38:29 10° NNE
Cosmos 2315 Rocket 3.9 23:29:15 10° N 23:35:29 89° E 23:36:58 55° S
Cosmos 2369 Rocket 4.3 23:32:22 10° W 23:36:45 22° NW 23:41:06 10° N
ATLAS CENTAUR R/B 2.5 23:35:43 33° W 23:36:52 40° NW 23:40:48 10° NNE
Okean 1-7 Rocket 4.2 23:37:39 45° E 23:37:39 45° E 23:41:48 10° NNE
Cosmos 1340 Rocket 3.7 23:34:40 10° NNW 23:38:06 41° WNW 23:38:06 41° WNW
Cosmos 2227 Rocket 4.0 23:34:52 10° N 23:39:32 25° NE 23:43:29 13° ESE
Nadezhda 2 Rocket 4.5 23:39:44 53° SSE 23:41:02 67° E 23:47:07 10° NNE
Cosmos 1908 3.7 23:39:21 10° NNW 23:42:29 57° NNW 23:42:29 57° NNW
STARLINK-1198 4.5 23:41:07 10° NW 23:45:09 47° NNE 23:46:07 39° ENE
Cosmos 1953 3.8 23:43:22 10° NNW 23:46:22 27° W 23:46:22 27° W
STARLINK-1199 4.4 23:46:06 10° NW 23:50:09 50° NNE 23:50:55 44° ENE
Landsat 4 4.3 23:48:04 10° NNE 23:51:00 53° NNE 23:51:00 53° NNE
STARLINK-1210 4.2 23:51:04 10° NW 23:55:08 54° NNE 23:55:42 50° ENE
